Custer, SD

1:38 AM MDT on October 19, 2017 (GMT -0600)
Custer County

Weather History for KCUT - November, 2013

Change the Weather History Date:

Saturday, November 30, 2013

  Actual Average Record
Temperature  
Mean Temperature 36 °F 26 °F  
Max Temperature 47 °F 36 °F 57 °F (1973)
Min Temperature 24 °F 16 °F -7 °F (1975)
Degree Days  
Heating Degree Days 29 39  
Month to date heating degree days 984 1001  
Since 1 July heating degree days 2112 2181  
Cooling Degree Days 0 0  
Month to date cooling degree days 0 0  
Year to date cooling degree days 187 177  
Moisture  
Dew Point 20 °F    
Average Humidity 55    
Maximum Humidity 75    
Minimum Humidity 34    
Precipitation  
Precipitation 0.00 in 0.02 in 0.42 in (1985)
Month to date precipitation 0.61 0.61  
Year to date precipitation 21.42 18.57  
Sea Level Pressure  
Sea Level Pressure 30.11 in    
Wind  
Wind Speed 3 mph (NW)    
Max Wind Speed 9 mph    
Max Gust Speed 14 mph    
Visibility 10 miles    
Events      
T = Trace of Precipitation, MM = Missing Value Source: NWS Daily Summary

Daily Weather History Graph

Daily Weather History Graph

Search for Another Location

Airport or City:

Trip Planner

Search our weather history database for the weather conditions in past years. The results will help you decide how hot, cold, wet, or windy it might be!

Date:

Astronomy

Nov. 30, 2013 Rise Set
Actual Time 7:07 AM MST 4:18 PM MST
Civil Twilight 6:35 AM MST 4:51 PM MST
Nautical Twilight 5:59 AM MST 5:26 PM MST
Astronomical Twilight 5:25 AM MST 6:01 PM MST
Moon 4:16 AM MST (11/30) 2:48 PM MST (11/30)
Length of Visible Light 10h 15m
Length of Day
9h 11m
Waning Crescent, 7% of the Moon is Illuminated
Nov 30
Waning Crescent
Dec 2
New
Dec 9
First Quarter
Dec 17
Full
Dec 25
Last Quarter

Hourly Weather History & Observations

Time (MST) Temp. Windchill Dew Point Humidity Pressure Visibility Wind Dir Wind Speed Gust Speed Precip Events Conditions
12:53 AM 35.1 °F - 18.0 °F 50% 30.01 in 10.0 mi Calm Calm - N/A   Clear
1:53 AM 30.0 °F 25.2 °F 18.0 °F 61% 30.04 in 10.0 mi WNW 4.6 mph - N/A   Clear
2:53 AM 26.1 °F 20.5 °F 18.0 °F 71% 30.08 in 10.0 mi North 4.6 mph - N/A   Clear
3:53 AM 27.0 °F 20.5 °F 18.0 °F 69% 30.09 in 10.0 mi NNW 5.8 mph - N/A   Clear
4:53 AM 28.9 °F - 18.0 °F 64% 30.11 in 10.0 mi Calm Calm - N/A   Clear
5:53 AM 27.0 °F 23.0 °F 18.0 °F 69% 30.14 in 10.0 mi NW 3.5 mph - N/A   Clear
6:53 AM 27.0 °F 19.5 °F 18.0 °F 69% 30.14 in 10.0 mi NW 6.9 mph - N/A   Clear
7:53 AM 34.0 °F - 21.9 °F 61% 30.13 in 10.0 mi Calm Calm - N/A   Clear
8:53 AM 39.0 °F - 19.9 °F 46% 30.14 in 10.0 mi Calm Calm - N/A   Clear
9:53 AM 43.0 °F 39.5 °F 19.9 °F 40% 30.12 in 10.0 mi SW 5.8 mph - N/A   Clear
10:53 AM 46.9 °F - 19.9 °F 34% 30.11 in 10.0 mi Variable 4.6 mph - N/A   Overcast
11:53 AM 46.0 °F 44.8 °F 19.9 °F 35% 30.10 in 10.0 mi WNW 3.5 mph - N/A   Overcast
12:53 PM 46.0 °F 43.1 °F 19.9 °F 35% 30.07 in 10.0 mi Variable 5.8 mph - N/A   Overcast
1:53 PM 46.9 °F - 21.0 °F 36% 30.08 in 10.0 mi NW 6.9 mph - N/A   Overcast
2:53 PM 45.0 °F 42.6 °F 21.0 °F 39% 30.11 in 10.0 mi NW 4.6 mph - N/A   Overcast
3:53 PM 44.1 °F - 21.9 °F 42% 30.11 in 10.0 mi Calm Calm - N/A   Mostly Cloudy
4:53 PM 37.0 °F 34.5 °F 21.9 °F 54% 30.15 in 10.0 mi North 3.5 mph - N/A   Clear
5:53 PM 32.0 °F - 21.9 °F 66% 30.19 in 10.0 mi Calm Calm - N/A   Clear
6:53 PM 30.0 °F 25.2 °F 21.9 °F 72% 30.20 in 10.0 mi NW 4.6 mph - N/A   Clear
7:53 PM 28.9 °F - 21.9 °F 75% 30.17 in 10.0 mi Calm Calm - N/A   Overcast
8:53 PM 30.0 °F - 21.9 °F 72% 30.14 in 10.0 mi Calm Calm - N/A   Overcast
9:53 PM 28.9 °F 25.2 °F 21.9 °F 75% 30.13 in 10.0 mi NW 3.5 mph - N/A   Overcast
10:53 PM 30.0 °F - 21.9 °F 72% 30.09 in 10.0 mi Calm Calm - N/A   Mostly Cloudy
11:53 PM 28.9 °F 23.9 °F 21.9 °F 75% 30.09 in 10.0 mi NW 4.6 mph - N/A   Overcast